BEIJING 1 1 28890U 05043A 26169.99658179 .00000084 00000+0 25764-4 0 9996 2 28890 98.2921 303.2192 0013330 277.7234 82.2454 14.63532357100917 HUANJING 1A (HJ-1A) 1 33320U 08041A 26169.98686881 .00001125 00000+0 14091-3 0 9998 2 33320 97.6681 155.7559 0020129 129.2708 231.0296 14.83989981958678 HUANJING 1B (HJ-1B) 1 33321U 08041B 26169.95675777 .00000223 00000+0 33280-4 0 9998 2 33321 97.6519 158.8934 0036192 175.0667 185.0911 14.83318556958676 YAOGAN-4 1 33446U 08061A 26169.78620707 .00000771 00000+0 10086-3 0 9998 2 33446 97.9307 103.2847 0015680 67.7329 292.5545 14.83202650945906 DEIMOS-1 1 35681U 09041A 26169.88204530 .00000760 00000+0 11943-3 0 9994 2 35681 97.7405 327.0355 0001719 128.9607 231.1756 14.75240271907131 UK-DMC 2 1 35683U 09041C 26169.92057626 .00000089 00000+0 20093-4 0 9994 2 35683 97.8845 304.8443 0001133 81.8192 278.3147 14.76036865906824 DMC3-FM1 1 40715U 15032A 26169.95641182 .00000051 00000+0 11837-4 0 9997 2 40715 97.6454 35.0620 0006935 54.8179 305.3686 14.85738998590172 DMC3-FM2 1 40716U 15032B 26169.91111074 .00000560 00000+0 70391-4 0 9991 2 40716 97.6508 36.5930 0007487 59.4504 300.7449 14.85745395590163 DMC3-FM3 1 40717U 15032C 26169.93444752 .00001153 00000+0 13870-3 0 9993 2 40717 97.6561 38.3701 0006775 60.1546 300.0342 14.85738086590178